Menu Close Menu
Station Historical Data
Daily Summary for November 17, 2017 Units:  Metric    English   Both
« Previous Day
Next Day »
Daily Weekly Monthly Yearly Custom
  High: Low: Average:
Temperature: 18.4 °C 2.7 °C 10.2 °C
Dew Point: 6.1 °C 1.3 °C 4 °C
Humidity: 93% 38% 69%
Wind Speed: 7.4km/h 0km/h 1.4km/h
Wind Gust: 7.4km/h - -
Wind- - West
Pressure: 1024.3 hPa 1019.5 hPa -
Precipitation: 0 mm    
Historical Graphs
 
 
Tabular Data for November 17, 2017
Time Temperature Dew Point Pressure Wind Wind Speed Wind Gust Humidity Rainfall Rate (Hourly) solar Conditions
00:00 7.4 °C 3.3 °C 1020.9 hPa NNE 1.9 km/h 1.9 km/h 75% 0 mm WeatherDisplay:10.37 W/m2 CLR
00:05 7.3 °C 3.2 °C 1021.2 hPa NNE 1.9 km/h   75% 0 mm WeatherDisplay:10.37 W/m2 CLR
00:10 7.3 °C 3.3 °C 1021.2 hPa NNE 1.9 km/h   76% 0 mm WeatherDisplay:10.37 W/m2 CLR
00:15 7.2 °C 3.3 °C 1021.2 hPa Calm     76% 0 mm WeatherDisplay:10.37 W/m2 CLR
00:21 7.2 °C 3.2 °C 1021.2 hPa Calm     76% 0 mm WeatherDisplay:10.37 W/m2 CLR
00:26 7.2 °C 3.4 °C 1021.2 hPa NNE 1.9 km/h   77% 0 mm WeatherDisplay:10.37 W/m2 CLR
00:36 6.9 °C 3.4 °C 1021.2 hPa NNE 1.9 km/h   78% 0 mm WeatherDisplay:10.37 W/m2 CLR
00:41 6.8 °C 3.3 °C 1021.6 hPa NNE 1.9 km/h   78% 0 mm WeatherDisplay:10.37 W/m2 CLR
00:46 6.7 °C 3.2 °C 1021.2 hPa Calm     78% 0 mm WeatherDisplay:10.37 W/m2 CLR
00:51 6.7 °C 3.2 °C 1021.2 hPa Calm     78% 0 mm WeatherDisplay:10.37 W/m2 CLR
00:56 6.8 °C 3.2 °C 1021.2 hPa Calm     78% 0 mm WeatherDisplay:10.37 W/m2 CLR
01:01 6.8 °C 3.4 °C 1021.2 hPa NE 1.9 km/h   79% 0 mm WeatherDisplay:10.37 W/m2 CLR
01:06 6.9 °C 3.4 °C 1021.2 hPa ENE 1.9 km/h   78% 0 mm WeatherDisplay:10.37 W/m2 CLR
01:11 7 °C 3.2 °C 1021.2 hPa ENE 1.9 km/h   77% 0 mm WeatherDisplay:10.37 W/m2 CLR
01:16 6.9 °C 3.4 °C 1021.2 hPa ENE 1.9 km/h   78% 0 mm WeatherDisplay:10.37 W/m2 CLR
01:21 6.9 °C 3.5 °C 1021.2 hPa Calm     79% 0 mm WeatherDisplay:10.37 W/m2 CLR
01:27 6.8 °C 3.4 °C 1021.2 hPa Calm     79% 0 mm WeatherDisplay:10.37 W/m2 CLR
01:32 6.8 °C 3.4 °C 1021.2 hPa Calm     79% 0 mm WeatherDisplay:10.37 W/m2 CLR
01:37 6.7 °C 3.3 °C 1021.2 hPa Calm     79% 0 mm WeatherDisplay:10.37 W/m2 CLR
01:42 6.7 °C 3.3 °C 1021.2 hPa Calm     79% 0 mm WeatherDisplay:10.37 W/m2 CLR
01:47 6.7 °C 3.3 °C 1021.2 hPa Calm     79% 0 mm WeatherDisplay:10.37 W/m2 CLR
01:52 6.7 °C 3.3 °C 1021.2 hPa ENE 1.9 km/h   79% 0 mm WeatherDisplay:10.37 W/m2 CLR
01:57 6.8 °C 3.4 °C 1021.2 hPa East 1.9 km/h   79% 0 mm WeatherDisplay:10.37 W/m2 CLR
02:02 6.7 °C 3.3 °C 1021.2 hPa East 1.9 km/h   79% 0 mm WeatherDisplay:10.37 W/m2 CLR
02:07 6.6 °C 3.2 °C 1021.2 hPa East 1.9 km/h   79% 0 mm WeatherDisplay:10.37 W/m2 CLR
02:12 6.3 °C 3.1 °C 1021.2 hPa East 1.9 km/h   80% 0 mm WeatherDisplay:10.37 W/m2 CLR
02:17 5.9 °C 3.1 °C 1021.2 hPa Calm     82% 0 mm WeatherDisplay:10.37 W/m2 CLR
02:22 5.7 °C 3 °C 1021.2 hPa Calm     83% 0 mm WeatherDisplay:10.37 W/m2 CLR
02:27 5.5 °C 3 °C 1021.2 hPa Calm     84% 0 mm WeatherDisplay:10.37 W/m2 CLR
02:32 5.3 °C 2.8 °C 1021.2 hPa Calm     84% 0 mm WeatherDisplay:10.37 W/m2 CLR
02:38 5.2 °C 2.8 °C 1021.2 hPa Calm     85% 0 mm WeatherDisplay:10.37 W/m2 CLR
02:43 5.1 °C 2.7 °C 1021.2 hPa Calm     85% 0 mm WeatherDisplay:10.37 W/m2 CLR
02:48 5 °C 2.7 °C 1021.2 hPa Calm     85% 0 mm WeatherDisplay:10.37 W/m2 CLR
02:53 4.9 °C 2.6 °C 1021.2 hPa Calm     85% 0 mm WeatherDisplay:10.37 W/m2 CLR
02:58 4.9 °C 2.6 °C 1021.2 hPa Calm     85% 0 mm WeatherDisplay:10.37 W/m2 CLR
03:03 4.8 °C 2.7 °C 1021.2 hPa Calm     86% 0 mm WeatherDisplay:10.37 W/m2 CLR
03:08 4.7 °C 2.6 °C 1021.2 hPa Calm     86% 0 mm WeatherDisplay:10.37 W/m2 CLR
03:13 4.6 °C 2.4 °C 1021.6 hPa Calm     86% 0 mm WeatherDisplay:10.37 W/m2 CLR
03:18 4.5 °C 2.3 °C 1021.6 hPa Calm     86% 0 mm WeatherDisplay:10.37 W/m2 CLR
03:23 4.4 °C 2.4 °C 1021.6 hPa Calm     87% 0 mm WeatherDisplay:10.37 W/m2 CLR
03:28 4.4 °C 2.4 °C 1021.6 hPa Calm     87% 0 mm WeatherDisplay:10.37 W/m2 CLR
03:33 4.3 °C 2.3 °C 1021.2 hPa Calm     87% 0 mm WeatherDisplay:10.37 W/m2 CLR
03:39 4.3 °C 2.4 °C 1021.2 hPa Calm     88% 0 mm WeatherDisplay:10.37 W/m2 CLR
03:44 4.2 °C 2.4 °C 1021.2 hPa Calm     88% 0 mm WeatherDisplay:10.37 W/m2 CLR
03:49 4.2 °C 2.3 °C 1021.2 hPa Calm     88% 0 mm WeatherDisplay:10.37 W/m2 CLR
03:54 4.2 °C 2.3 °C 1021.2 hPa Calm     88% 0 mm WeatherDisplay:10.37 W/m2 CLR
03:59 4.1 °C 2.2 °C 1021.2 hPa Calm     88% 0 mm WeatherDisplay:10.37 W/m2 CLR
04:04 4 °C 2.2 °C 1021.2 hPa Calm     88% 0 mm WeatherDisplay:10.37 W/m2 CLR
04:09 3.9 °C 2.1 °C 1021.2 hPa Calm     88% 0 mm WeatherDisplay:10.37 W/m2 CLR
04:14 3.9 °C 2.2 °C 1021.2 hPa Calm     89% 0 mm WeatherDisplay:10.37 W/m2 CLR
04:19 3.9 °C 2.2 °C 1021.2 hPa Calm     89% 0 mm WeatherDisplay:10.37 W/m2 CLR
04:24 3.9 °C 2.2 °C 1021.2 hPa Calm     89% 0 mm WeatherDisplay:10.37 W/m2 CLR
04:29 3.9 °C 2.2 °C 1021.6 hPa Calm     89% 0 mm WeatherDisplay:10.37 W/m2 CLR
04:34 3.9 °C 2.2 °C 1021.6 hPa Calm     89% 0 mm WeatherDisplay:10.37 W/m2 CLR
04:39 3.9 °C 2.2 °C 1021.6 hPa Calm     89% 0 mm WeatherDisplay:10.37 W/m2 CLR
04:45 3.9 °C 2.2 °C 1021.6 hPa Calm     89% 0 mm WeatherDisplay:10.37 W/m2 CLR
04:50 3.8 °C 2.2 °C 1021.6 hPa Calm     89% 0 mm WeatherDisplay:10.37 W/m2 CLR
04:55 3.8 °C 2.1 °C 1021.6 hPa Calm     89% 0 mm WeatherDisplay:10.37 W/m2 CLR
05:00 3.7 °C 2.1 °C 1021.6 hPa Calm     89% 0 mm WeatherDisplay:10.37 W/m2 CLR
05:05 3.7 °C 2 °C 1021.2 hPa Calm     89% 0 mm WeatherDisplay:10.37 W/m2 CLR
05:08 3.7 °C 2 °C 1021.2 hPa Calm     89% 0 mm WeatherDisplay:10.37 W/m2 CLR
05:13 3.6 °C 1.9 °C 1021.2 hPa Calm     89% 0 mm WeatherDisplay:10.37 W/m2 CLR
05:18 3.6 °C 2.1 °C 1021.2 hPa Calm     90% 0 mm WeatherDisplay:10.37 W/m2 CLR
05:24 3.6 °C 1.9 °C 1021.2 hPa Calm     89% 0 mm WeatherDisplay:10.37 W/m2 CLR
05:29 3.4 °C 1.8 °C 1021.6 hPa Calm     89% 0 mm WeatherDisplay:10.37 W/m2 CLR
05:34 3.4 °C 1.9 °C 1021.6 hPa Calm     90% 0 mm WeatherDisplay:10.37 W/m2 CLR
05:39 3.3 °C 1.8 °C 1021.9 hPa Calm     90% 0 mm WeatherDisplay:10.37 W/m2 CLR
05:44 3.3 °C 1.8 °C 1021.9 hPa Calm     90% 0 mm WeatherDisplay:10.37 W/m2 CLR
05:49 3.2 °C 1.7 °C 1022.2 hPa Calm     90% 0 mm WeatherDisplay:10.37 W/m2 CLR
05:54 3.1 °C 1.6 °C 1022.2 hPa Calm     90% 0 mm WeatherDisplay:10.37 W/m2 CLR
05:59 3.1 °C 1.6 °C 1022.2 hPa Calm     90% 0 mm WeatherDisplay:10.37 W/m2 CLR
06:04 3 °C 1.5 °C 1022.2 hPa Calm     90% 0 mm WeatherDisplay:10.37 W/m2 CLR
06:09 3 °C 1.5 °C 1022.2 hPa Calm     90% 0 mm WeatherDisplay:10.37 W/m2 CLR
06:14 3 °C 1.7 °C 1022.6 hPa Calm     91% 0 mm WeatherDisplay:10.37 W/m2 CLR
06:19 2.9 °C 1.4 °C 1022.6 hPa Calm     90% 0 mm WeatherDisplay:10.37 W/m2 CLR
06:25 2.9 °C 1.6 °C 1022.6 hPa Calm     91% 0 mm WeatherDisplay:10.37 W/m2 CLR
06:30 2.9 °C 1.6 °C 1022.6 hPa Calm     91% 0 mm WeatherDisplay:10.37 W/m2 CLR
06:35 2.9 °C 1.6 °C 1022.6 hPa Calm     91% 0 mm WeatherDisplay:10.37 W/m2 CLR
06:40 2.9 °C 1.6 °C 1022.6 hPa Calm     91% 0 mm WeatherDisplay:10.37 W/m2 CLR
06:45 2.9 °C 1.6 °C 1022.6 hPa Calm     91% 0 mm WeatherDisplay:10.37 W/m2 CLR
06:50 2.9 °C 1.6 °C 1022.6 hPa Calm     91% 0 mm WeatherDisplay:10.37 W/m2 CLR
06:55 2.9 °C 1.6 °C 1022.6 hPa Calm     91% 0 mm WeatherDisplay:10.37 W/m2 CLR
07:00 2.9 °C 1.6 °C 1022.6 hPa Calm     91% 0 mm WeatherDisplay:10.37 W/m2 CLR
07:10 2.8 °C 1.4 °C 1022.6 hPa Calm     91% 0 mm WeatherDisplay:10.37 W/m2 BKN
07:15 2.7 °C 1.4 °C 1022.9 hPa Calm     91% 0 mm WeatherDisplay:10.37 W/m2 BKN
07:20 2.7 °C 1.4 °C 1022.9 hPa Calm     91% 0 mm WeatherDisplay:10.37 W/m2 BKN
07:25 2.7 °C 1.4 °C 1022.9 hPa Calm     91% 0 mm WeatherDisplay:10.37 W/m2 BKN
07:31 2.7 °C 1.3 °C 1023.2 hPa Calm     91% 0 mm WeatherDisplay:10.37 W/m2 BKN
07:36 2.7 °C 1.4 °C 1023.2 hPa Calm     91% 0 mm WeatherDisplay:10.37 W/m2 BKN
07:41 2.7 °C 1.4 °C 1023.2 hPa Calm     91% 0 mm WeatherDisplay:10.37 W/m2 BKN
07:46 2.8 °C 1.6 °C 1023.2 hPa Calm     92% 0 mm WeatherDisplay:10.37 W/m2 BKN
07:51 2.8 °C 1.7 °C 1023.2 hPa Calm     92% 0 mm WeatherDisplay:10.37 W/m2 BKN
07:56 3 °C 1.8 °C 1023.6 hPa Calm     92% 0 mm WeatherDisplay:10.37 W/m2 BKN
08:01 3.2 °C 2.1 °C 1023.6 hPa Calm     92% 0 mm WeatherDisplay:10.37 W/m2 FEW
08:06 3.3 °C 2.2 °C 1023.6 hPa Calm     92% 0 mm WeatherDisplay:10.37 W/m2 FEW
08:11 3.6 °C 2.4 °C 1023.6 hPa Calm     92% 0 mm WeatherDisplay:10.37 W/m2 FEW
08:16 3.8 °C 2.8 °C 1023.9 hPa Calm     93% 0 mm WeatherDisplay:10.37 W/m2 FEW
08:21 4.1 °C 3 °C 1023.9 hPa Calm     93% 0 mm WeatherDisplay:10.37 W/m2 FEW
08:26 4.3 °C 3.3 °C 1023.9 hPa Calm     93% 0 mm WeatherDisplay:10.37 W/m2 FEW
08:31 4.7 °C 3.6 °C 1023.9 hPa Calm     93% 0 mm WeatherDisplay:10.37 W/m2 FEW
08:41 5.4 °C 4.3 °C 1023.9 hPa Calm     93% 0 mm WeatherDisplay:10.37 W/m2 FEW
08:47 5.8 °C 4.6 °C 1023.9 hPa Calm     92% 0 mm WeatherDisplay:10.37 W/m2 FEW
08:52 6.7 °C 4.2 °C 1023.9 hPa Calm     84% 0 mm WeatherDisplay:10.37 W/m2 FEW
08:57 7.6 °C 4.2 °C 1023.9 hPa Calm     79% 0 mm WeatherDisplay:10.37 W/m2 FEW
09:02 8.2 °C 3.8 °C 1023.9 hPa Calm     74% 0 mm WeatherDisplay:10.37 W/m2 FEW
09:07 8.6 °C 3.8 °C 1023.9 hPa WNW 5.6 km/h 5.6 km/h 72% 0 mm WeatherDisplay:10.37 W/m2 FEW
09:12 8.8 °C 3.8 °C 1023.9 hPa West 5.6 km/h   71% 0 mm WeatherDisplay:10.37 W/m2 FEW
09:17 9.1 °C 3.7 °C 1023.9 hPa West 5.6 km/h 5.6 km/h 69% 0 mm WeatherDisplay:10.37 W/m2 FEW
09:22 9.3 °C 3.7 °C 1023.9 hPa West 3.7 km/h 3.7 km/h 68% 0 mm WeatherDisplay:10.37 W/m2 FEW
09:27 9.8 °C 3.9 °C 1023.9 hPa WNW 3.7 km/h   67% 0 mm WeatherDisplay:10.37 W/m2 FEW
09:32 10 °C 3.3 °C 1023.9 hPa WNW 5.6 km/h 5.6 km/h 63% 0 mm WeatherDisplay:10.37 W/m2 FEW
09:37 10.1 °C 3.6 °C 1023.9 hPa West 7.4 km/h 7.4 km/h 64% 0 mm WeatherDisplay:10.37 W/m2 FEW
09:42 10.6 °C 3.3 °C 1024.3 hPa West 7.4 km/h 7.4 km/h 61% 0 mm WeatherDisplay:10.37 W/m2 FEW
09:47 10.9 °C 3.4 °C 1024.3 hPa West 5.6 km/h 5.6 km/h 60% 0 mm WeatherDisplay:10.37 W/m2 FEW
09:53 11.1 °C 3.6 °C 1024.3 hPa West 5.6 km/h 5.6 km/h 60% 0 mm WeatherDisplay:10.37 W/m2 FEW
09:58 11.4 °C 3.7 °C 1024.3 hPa West 5.6 km/h 5.6 km/h 59% 0 mm WeatherDisplay:10.37 W/m2 FEW
10:03 11.5 °C 3 °C 1024.3 hPa West 5.6 km/h 5.6 km/h 56% 0 mm WeatherDisplay:10.37 W/m2 FEW
10:08 11.8 °C 3.8 °C 1024.3 hPa West 7.4 km/h 7.4 km/h 58% 0 mm WeatherDisplay:10.37 W/m2 FEW
10:13 12.2 °C 3.9 °C 1024.3 hPa West 7.4 km/h   57% 0 mm WeatherDisplay:10.37 W/m2 FEW
10:18 12.7 °C 3.8 °C 1023.9 hPa West 5.6 km/h 5.6 km/h 55% 0 mm WeatherDisplay:10.37 W/m2 FEW
10:23 13.2 °C 3.8 °C 1023.9 hPa West 3.7 km/h 3.7 km/h 53% 0 mm WeatherDisplay:10.37 W/m2 FEW
10:28 13.6 °C 3.9 °C 1023.9 hPa WNW 3.7 km/h   52% 0 mm WeatherDisplay:10.37 W/m2 FEW
10:33 14.2 °C 4.2 °C 1023.9 hPa WNW 3.7 km/h 3.7 km/h 51% 0 mm WeatherDisplay:10.37 W/m2 FEW
10:38 14.2 °C 4.2 °C 1023.6 hPa WNW 3.7 km/h 3.7 km/h 51% 0 mm WeatherDisplay:10.37 W/m2 FEW
10:43 14.3 °C 4.1 °C 1023.6 hPa WNW 3.7 km/h 3.7 km/h 50% 0 mm WeatherDisplay:10.37 W/m2 FEW
10:44 14.3 °C 4.3 °C 1023.9 hPa WNW 3.7 km/h 3.7 km/h 51% 0 mm WeatherDisplay:10.37 W/m2 FEW
10:49 14.6 °C 3.9 °C 1023.6 hPa WNW 5.6 km/h 5.6 km/h 49% 0 mm WeatherDisplay:10.37 W/m2 FEW
10:54 14.6 °C 3.9 °C 1023.6 hPa West 5.6 km/h 5.6 km/h 49% 0 mm WeatherDisplay:10.37 W/m2 FEW
11:00 14.6 °C 4 °C 1023.6 hPa West 5.6 km/h 5.6 km/h 49% 0 mm WeatherDisplay:10.37 W/m2 FEW
11:05 14.7 °C 3.8 °C 1023.6 hPa West 3.7 km/h 3.7 km/h 48% 0 mm WeatherDisplay:10.37 W/m2 FEW
11:15 15.1 °C 4.2 °C 1023.2 hPa WNW 3.7 km/h 3.7 km/h 48% 0 mm WeatherDisplay:10.37 W/m2 FEW
11:20 15.3 °C 4 °C 1023.2 hPa West 3.7 km/h   47% 0 mm WeatherDisplay:10.37 W/m2 FEW
11:25 15.4 °C 3.8 °C 1023.2 hPa WNW 5.6 km/h 5.6 km/h 46% 0 mm WeatherDisplay:10.37 W/m2 FEW
11:30 15.3 °C 3.4 °C 1023.2 hPa WNW 7.4 km/h 7.4 km/h 45% 0 mm WeatherDisplay:10.37 W/m2 FEW
11:35 15.4 °C 3.8 °C 1023.2 hPa West 7.4 km/h   46% 0 mm WeatherDisplay:10.37 W/m2 FEW
11:50 15.7 °C 4.1 °C 1022.9 hPa West 5.6 km/h 5.6 km/h 46% 0 mm WeatherDisplay:10.37 W/m2 FEW
11:55 15.9 °C 3.7 °C 1022.9 hPa WNW 7.4 km/h 7.4 km/h 44% 0 mm WeatherDisplay:10.37 W/m2 FEW
12:00 16 °C 4.1 °C 1022.9 hPa NW 7.4 km/h 7.4 km/h 45% 0 mm WeatherDisplay:10.37 W/m2 FEW
12:05 16.2 °C 3.9 °C 1022.6 hPa NW 5.6 km/h   44% 0 mm WeatherDisplay:10.37 W/m2 FEW
12:11 16.3 °C 3.7 °C 1022.6 hPa NW 5.6 km/h   43% 0 mm WeatherDisplay:10.37 W/m2 FEW
12:16 16.4 °C 3.8 °C 1022.6 hPa NW 5.6 km/h 5.6 km/h 43% 0 mm WeatherDisplay:10.37 W/m2 FEW
12:21 16.6 °C 4.6 °C 1022.2 hPa NW 5.6 km/h   45% 0 mm WeatherDisplay:10.37 W/m2 FEW
12:26 16.9 °C 4.9 °C 1022.2 hPa WNW 3.7 km/h 3.7 km/h 45% 0 mm WeatherDisplay:10.37 W/m2 FEW
12:31 17.2 °C 4.5 °C 1021.9 hPa WNW 3.7 km/h   43% 0 mm WeatherDisplay:10.37 W/m2 FEW
12:36 17.3 °C 4.6 °C 1021.6 hPa NW 3.7 km/h   43% 0 mm WeatherDisplay:10.37 W/m2 FEW
12:41 17.4 °C 5.3 °C 1021.6 hPa NW 3.7 km/h 3.7 km/h 45% 0 mm WeatherDisplay:10.37 W/m2 FEW
12:46 17.6 °C 4.6 °C 1021.6 hPa NW 5.6 km/h   42% 0 mm WeatherDisplay:10.37 W/m2 FEW
12:51 17.7 °C 4.6 °C 1021.6 hPa NW 5.6 km/h 5.6 km/h 42% 0 mm WeatherDisplay:10.37 W/m2 FEW
12:56 17.8 °C 4.4 °C 1021.6 hPa NNW 1.9 km/h 1.9 km/h 41% 0 mm WeatherDisplay:10.37 W/m2 FEW
13:01 18 °C 5.2 °C 1021.2 hPa NW 1.9 km/h 1.9 km/h 43% 0 mm WeatherDisplay:10.37 W/m2 FEW
13:07 18.2 °C 4 °C 1021.6 hPa NW 5.6 km/h 5.6 km/h 39% 0 mm WeatherDisplay:10.37 W/m2 FEW
13:12 18.3 °C 3.8 °C 1021.6 hPa NW 5.6 km/h 5.6 km/h 38% 0 mm WeatherDisplay:10.37 W/m2 FEW
13:17 18.4 °C 4.2 °C 1021.2 hPa NW 5.6 km/h   39% 0 mm WeatherDisplay:10.37 W/m2 FEW
13:22 18.2 °C 4 °C 1021.2 hPa WNW 5.6 km/h   39% 0 mm WeatherDisplay:10.37 W/m2 FEW
13:27 18.2 °C 4 °C 1021.2 hPa NW 5.6 km/h 5.6 km/h 39% 0 mm WeatherDisplay:10.37 W/m2 FEW
13:32 18.1 °C 4.3 °C 1021.2 hPa WNW 5.6 km/h 5.6 km/h 40% 0 mm WeatherDisplay:10.37 W/m2 FEW
13:37 17.9 °C 4.1 °C 1021.2 hPa West 3.7 km/h 3.7 km/h 40% 0 mm WeatherDisplay:10.37 W/m2 FEW
13:42 17.9 °C 4.5 °C 1021.2 hPa WNW 3.7 km/h 3.7 km/h 41% 0 mm WeatherDisplay:10.37 W/m2 FEW
13:47 18.1 °C 4.2 °C 1021.2 hPa NW 1.9 km/h 1.9 km/h 40% 0 mm WeatherDisplay:10.37 W/m2 FEW
13:52 18.2 °C 4 °C 1021.2 hPa NNW 3.7 km/h 3.7 km/h 39% 0 mm WeatherDisplay:10.37 W/m2 FEW
13:57 18.1 °C 3.9 °C 1021.2 hPa NW 3.7 km/h   39% 0 mm WeatherDisplay:10.37 W/m2 FEW
14:02 18 °C 3.8 °C 1021.2 hPa WNW 3.7 km/h 3.7 km/h 39% 0 mm WeatherDisplay:10.37 W/m2 FEW
14:07 17.9 °C 4.1 °C 1021.2 hPa WNW 5.6 km/h   40% 0 mm WeatherDisplay:10.37 W/m2 FEW
14:12 17.9 °C 3.7 °C 1020.9 hPa NW 5.6 km/h   39% 0 mm WeatherDisplay:10.37 W/m2 FEW
14:18 17.8 °C 3.6 °C 1020.9 hPa NNW 1.9 km/h   39% 0 mm WeatherDisplay:10.37 W/m2 FEW
14:23 17.9 °C 4.1 °C 1020.9 hPa NW 1.9 km/h 1.9 km/h 40% 0 mm WeatherDisplay:10.37 W/m2 FEW
14:28 18.1 °C 4.6 °C 1020.5 hPa NW 1.9 km/h   41% 0 mm WeatherDisplay:10.37 W/m2 FEW
14:33 18.1 °C 4.2 °C 1020.5 hPa NW 3.7 km/h 3.7 km/h 40% 0 mm WeatherDisplay:10.37 W/m2 FEW
14:38 17.9 °C 4.1 °C 1020.5 hPa NW 3.7 km/h 3.7 km/h 40% 0 mm WeatherDisplay:10.37 W/m2 FEW
14:43 17.8 °C 4.4 °C 1020.5 hPa West 3.7 km/h   41% 0 mm WeatherDisplay:10.37 W/m2 FEW
14:48 17.8 °C 4.7 °C 1020.2 hPa West 5.6 km/h 5.6 km/h 42% 0 mm WeatherDisplay:10.37 W/m2 FEW
14:53 17.7 °C 4.3 °C 1020.2 hPa West 5.6 km/h 5.6 km/h 41% 0 mm WeatherDisplay:10.37 W/m2 FEW
14:58 17.7 °C 4.6 °C 1020.2 hPa WNW 3.7 km/h   42% 0 mm WeatherDisplay:10.37 W/m2 FEW
15:03 17.7 °C 3.6 °C 1020.2 hPa NW 3.7 km/h   39% 0 mm WeatherDisplay:10.37 W/m2 SCT
15:08 17.7 °C 4.2 °C 1019.9 hPa WNW 1.9 km/h   41% 0 mm WeatherDisplay:10.37 W/m2 SCT
15:13 17.6 °C 4.9 °C 1019.9 hPa NW 1.9 km/h 1.9 km/h 43% 0 mm WeatherDisplay:10.37 W/m2 SCT
15:18 17.6 °C 4.8 °C 1019.9 hPa NNW 1.9 km/h   43% 0 mm WeatherDisplay:10.37 W/m2 SCT
15:23 17.5 °C 5.1 °C 1019.9 hPa NNW 1.9 km/h   44% 0 mm WeatherDisplay:10.37 W/m2 SCT
15:29 17.5 °C 5.1 °C 1019.9 hPa NNW 3.7 km/h   44% 0 mm WeatherDisplay:10.37 W/m2 SCT
15:34 17.5 °C 4.8 °C 1019.9 hPa NW 3.7 km/h   43% 0 mm WeatherDisplay:10.37 W/m2 SCT
15:39 17.6 °C 4.8 °C 1019.5 hPa NW 1.9 km/h 1.9 km/h 43% 0 mm WeatherDisplay:10.37 W/m2 SCT
15:44 17.6 °C 4.5 °C 1019.5 hPa NNW 1.9 km/h 1.9 km/h 42% 0 mm WeatherDisplay:10.37 W/m2 SCT
15:49 17.6 °C 4.2 °C 1019.5 hPa NW 1.9 km/h   41% 0 mm WeatherDisplay:10.37 W/m2 SCT
15:54 17.7 °C 5.3 °C 1019.5 hPa NW 1.9 km/h   44% 0 mm WeatherDisplay:10.37 W/m2 SCT
15:59 17.7 °C 4.6 °C 1019.5 hPa Calm   0.3 km/h 42% 0 mm WeatherDisplay:10.37 W/m2 SCT
16:04 17.5 °C 5.1 °C 1019.5 hPa NW 1.9 km/h   44% 0 mm WeatherDisplay:10.37 W/m2 SCT
16:09 17.3 °C 5.3 °C 1019.9 hPa NW 1.9 km/h   45% 0 mm WeatherDisplay:10.37 W/m2 SCT
16:14 17.1 °C 5.4 °C 1019.5 hPa NW 1.9 km/h   46% 0 mm WeatherDisplay:10.37 W/m2 CLR
16:19 17.1 °C 4.7 °C 1019.9 hPa NW 1.9 km/h 1.9 km/h 44% 0 mm WeatherDisplay:10.37 W/m2 CLR
16:24 16.9 °C 4.6 °C 1019.5 hPa NW 1.9 km/h 1.9 km/h 44% 0 mm WeatherDisplay:10.37 W/m2 CLR
16:30 16.9 °C 4.6 °C 1019.9 hPa NW 3.7 km/h   44% 0 mm WeatherDisplay:10.37 W/m2 CLR
16:35 16.7 °C 5.1 °C 1019.9 hPa Calm     46% 0 mm WeatherDisplay:10.37 W/m2 CLR
16:40 16.7 °C 4.3 °C 1019.9 hPa Calm     44% 0 mm WeatherDisplay:10.37 W/m2 CLR
16:45 16.5 °C 4.8 °C 1019.9 hPa Calm     46% 0 mm WeatherDisplay:10.37 W/m2 CLR
16:50 16.3 °C 5 °C 1019.9 hPa NNW 1.9 km/h   47% 0 mm WeatherDisplay:10.37 W/m2 CLR
16:55 16.1 °C 5.1 °C 1019.9 hPa NNW 1.9 km/h   48% 0 mm WeatherDisplay:10.37 W/m2 CLR
17:00 15.8 °C 4.8 °C 1019.9 hPa Calm     48% 0 mm WeatherDisplay:10.37 W/m2 CLR
17:05 15.6 °C 4.6 °C 1019.9 hPa Calm     48% 0 mm WeatherDisplay:10.37 W/m2 SCT
17:10 15.4 °C 4.8 °C 1019.9 hPa Calm     49% 0 mm WeatherDisplay:10.37 W/m2 SCT
17:15 15.3 °C 4.9 °C 1019.9 hPa Calm     50% 0 mm WeatherDisplay:10.37 W/m2 SCT
17:20 15.2 °C 5.1 °C 1019.9 hPa Calm     51% 0 mm WeatherDisplay:10.37 W/m2 SCT
17:26 15 °C 5.2 °C 1019.9 hPa Calm     52% 0 mm WeatherDisplay:10.37 W/m2 SCT
17:31 14.8 °C 5.1 °C 1019.9 hPa Calm     52% 0 mm WeatherDisplay:10.37 W/m2 SCT
17:36 14.7 °C 5.2 °C 1019.9 hPa Calm     53% 0 mm WeatherDisplay:10.37 W/m2 SCT
17:41 14.5 °C 5.3 °C 1019.9 hPa Calm     54% 0 mm WeatherDisplay:10.37 W/m2 SCT
17:46 14.3 °C 5.1 °C 1020.2 hPa Calm     54% 0 mm WeatherDisplay:10.37 W/m2 SCT
17:51 14.1 °C 5.2 °C 1019.9 hPa Calm     55% 0 mm WeatherDisplay:10.37 W/m2 SCT
17:56 13.8 °C 5.4 °C 1019.9 hPa Calm     57% 0 mm WeatherDisplay:10.37 W/m2 SCT
18:01 13.6 °C 5.5 °C 1019.9 hPa Calm     58% 0 mm WeatherDisplay:10.37 W/m2 SCT
18:07 13.4 °C 6 °C 1019.9 hPa Calm     61% 0 mm WeatherDisplay:10.37 W/m2 SCT
18:12 13.2 °C 5.3 °C 1019.9 hPa Calm     59% 0 mm WeatherDisplay:10.37 W/m2 SCT
18:17 12.9 °C 5.6 °C 1019.9 hPa Calm     61% 0 mm WeatherDisplay:10.37 W/m2 SCT
18:22 12.8 °C 5.4 °C 1019.9 hPa Calm     61% 0 mm WeatherDisplay:10.37 W/m2 SCT
18:27 12.6 °C 5.2 °C 1019.9 hPa Calm     61% 0 mm WeatherDisplay:10.37 W/m2 SCT
18:32 12.5 °C 5.4 °C 1019.9 hPa Calm     62% 0 mm WeatherDisplay:10.37 W/m2 SCT
18:37 12.4 °C 5.3 °C 1019.9 hPa Calm     62% 0 mm WeatherDisplay:10.37 W/m2 SCT
18:42 12.3 °C 5.3 °C 1019.9 hPa Calm     62% 0 mm WeatherDisplay:10.37 W/m2 SCT
18:47 12.3 °C 5.5 °C 1020.2 hPa Calm     63% 0 mm WeatherDisplay:10.37 W/m2 SCT
18:52 12.2 °C 5.6 °C 1019.9 hPa Calm     64% 0 mm WeatherDisplay:10.37 W/m2 SCT
18:57 12.1 °C 5.7 °C 1020.2 hPa Calm     65% 0 mm WeatherDisplay:10.37 W/m2 SCT
19:02 11.9 °C 5.9 °C 1020.2 hPa Calm     67% 0 mm WeatherDisplay:10.37 W/m2 SCT
19:07 11.8 °C 6.1 °C 1020.2 hPa Calm     68% 0 mm WeatherDisplay:10.37 W/m2 SCT
19:12 11.7 °C 6 °C 1020.2 hPa Calm     68% 0 mm WeatherDisplay:10.37 W/m2 SCT
19:18 11.6 °C 6.1 °C 1020.5 hPa Calm     69% 0 mm WeatherDisplay:10.37 W/m2 SCT
19:23 11.6 °C 5.9 °C 1020.5 hPa Calm     68% 0 mm WeatherDisplay:10.37 W/m2 SCT
19:28 11.6 °C 6.1 °C 1020.5 hPa Calm     69% 0 mm WeatherDisplay:10.37 W/m2 SCT
19:33 11.4 °C 5.9 °C 1020.5 hPa Calm     69% 0 mm WeatherDisplay:10.37 W/m2 SCT
19:38 11.2 °C 5.9 °C 1020.2 hPa Calm     70% 0 mm WeatherDisplay:10.37 W/m2 SCT
19:43 10.9 °C 6.1 °C 1020.2 hPa Calm     72% 0 mm WeatherDisplay:10.37 W/m2 SCT
19:48 10.7 °C 5.8 °C 1020.2 hPa Calm     72% 0 mm WeatherDisplay:10.37 W/m2 SCT
19:54 10.6 °C 5.9 °C 1020.2 hPa Calm     73% 0 mm WeatherDisplay:10.37 W/m2 SCT
19:59 10.4 °C 5.8 °C 1020.2 hPa Calm     73% 0 mm WeatherDisplay:10.37 W/m2 SCT
20:04 10.4 °C 5.8 °C 1020.2 hPa Calm     73% 0 mm WeatherDisplay:10.37 W/m2 FEW
20:09 10.3 °C 6.1 °C 1020.2 hPa Calm     75% 0 mm WeatherDisplay:10.37 W/m2 FEW
20:14 10.2 °C 5.8 °C 1020.2 hPa Calm     74% 0 mm WeatherDisplay:10.37 W/m2 FEW
20:17 10.2 °C 5.7 °C 1020.5 hPa Calm     74% 0 mm WeatherDisplay:10.37 W/m2 FEW
20:22 10.4 °C 5.8 °C 1020.5 hPa Calm     73% 0 mm WeatherDisplay:10.37 W/m2 FEW
20:27 10.6 °C 5.9 °C 1020.5 hPa Calm     73% 0 mm WeatherDisplay:10.37 W/m2 FEW
20:32 10.3 °C 6.1 °C 1020.2 hPa Calm     75% 0 mm WeatherDisplay:10.37 W/m2 FEW
20:37 10.2 °C 6.1 °C 1020.2 hPa Calm     76% 0 mm WeatherDisplay:10.37 W/m2 FEW
20:42 9.9 °C 5.9 °C 1020.2 hPa Calm     76% 0 mm WeatherDisplay:10.37 W/m2 FEW
20:47 9.9 °C 5.7 °C 1020.2 hPa Calm     75% 0 mm WeatherDisplay:10.37 W/m2 FEW
20:52 10.1 °C 5.7 °C 1020.2 hPa Calm     74% 0 mm WeatherDisplay:10.37 W/m2 FEW
20:57 10.2 °C 6.1 °C 1020.2 hPa Calm     76% 0 mm WeatherDisplay:10.37 W/m2 FEW
21:02 10.1 °C 5.7 °C 1020.2 hPa Calm     74% 0 mm WeatherDisplay:10.37 W/m2 FEW
21:08 10.1 °C 5.7 °C 1020.2 hPa Calm     74% 0 mm WeatherDisplay:10.37 W/m2 FEW
21:13 10.2 °C 5.8 °C 1020.2 hPa Calm     74% 0 mm WeatherDisplay:10.37 W/m2 FEW
21:18 10.3 °C 5.7 °C 1020.2 hPa Calm     73% 0 mm WeatherDisplay:10.37 W/m2 FEW
21:23 10.3 °C 5.7 °C 1020.2 hPa Calm     73% 0 mm WeatherDisplay:10.37 W/m2 FEW
21:28 10.3 °C 5.9 °C 1020.5 hPa Calm     74% 0 mm WeatherDisplay:10.37 W/m2 FEW
21:33 10.3 °C 5.9 °C 1020.5 hPa Calm     74% 0 mm WeatherDisplay:10.37 W/m2 FEW
21:38 10.2 °C 6 °C 1020.2 hPa Calm     75% 0 mm WeatherDisplay:10.37 W/m2 FEW
21:43 10.1 °C 6 °C 1020.2 hPa Calm     76% 0 mm WeatherDisplay:10.37 W/m2 FEW
21:48 9.8 °C 5.9 °C 1020.2 hPa Calm     77% 0 mm WeatherDisplay:10.37 W/m2 FEW
21:53 9.7 °C 5.9 °C 1020.2 hPa Calm     77% 0 mm WeatherDisplay:10.37 W/m2 FEW
21:58 9.9 °C 5.9 °C 1020.5 hPa Calm     76% 0 mm WeatherDisplay:10.37 W/m2 FEW
22:03 10.1 °C 6 °C 1020.5 hPa Calm     76% 0 mm WeatherDisplay:10.37 W/m2 FEW
22:08 9.9 °C 6.1 °C 1020.5 hPa Calm     77% 0 mm WeatherDisplay:10.37 W/m2 FEW
22:20 9.8 °C 6.1 °C 1020.5 hPa Calm     78% 0 mm WeatherDisplay:10.37 W/m2 CLR
22:23 9.6 °C 5.9 °C 1020.5 hPa Calm     78% 0 mm WeatherDisplay:10.37 W/m2 CLR
22:24 9.6 °C 5.9 °C 1020.5 hPa Calm     78% 0 mm WeatherDisplay:10.37 W/m2 CLR
22:29 9.3 °C 5.9 °C 1020.5 hPa Calm     79% 0 mm WeatherDisplay:10.37 W/m2 CLR
22:35 9.2 °C 5.9 °C 1020.5 hPa Calm     80% 0 mm WeatherDisplay:10.37 W/m2 CLR
22:37 9.1 °C 5.8 °C 1020.5 hPa Calm     80% 0 mm WeatherDisplay:10.37 W/m2 CLR
22:42 8.9 °C 5.8 °C 1020.2 hPa Calm     81% 0 mm WeatherDisplay:10.37 W/m2 CLR
22:47 8.7 °C 5.7 °C 1020.2 hPa Calm     81% 0 mm WeatherDisplay:10.37 W/m2 CLR
22:52 8.6 °C 5.7 °C 1020.2 hPa Calm     82% 0 mm WeatherDisplay:10.37 W/m2 CLR
22:57 8.3 °C 5.6 °C 1020.2 hPa Calm     83% 0 mm WeatherDisplay:10.37 W/m2 CLR
23:02 8.2 °C 5.5 °C 1019.9 hPa Calm     83% 0 mm WeatherDisplay:10.37 W/m2 CLR
23:07 8.1 °C 5.6 °C 1020.2 hPa Calm     84% 0 mm WeatherDisplay:10.37 W/m2 CLR
23:13 8 °C 5.4 °C 1019.9 hPa Calm     84% 0 mm WeatherDisplay:10.37 W/m2 SCT
23:18 7.9 °C 5.6 °C 1020.2 hPa Calm     85% 0 mm WeatherDisplay:10.37 W/m2 SCT
23:23 7.9 °C 5.6 °C 1019.9 hPa Calm     85% 0 mm WeatherDisplay:10.37 W/m2 SCT
23:28 7.9 °C 5.6 °C 1019.9 hPa Calm     85% 0 mm WeatherDisplay:10.37 W/m2 SCT
23:33 7.9 °C 5.5 °C 1019.9 hPa Calm     85% 0 mm WeatherDisplay:10.37 W/m2 SCT
23:38 7.9 °C 5.5 °C 1019.9 hPa Calm     85% 0 mm WeatherDisplay:10.37 W/m2 SCT
23:48 7.8 °C 5.4 °C 1019.9 hPa Calm     85% 0 mm WeatherDisplay:10.37 W/m2 SCT
23:53 7.8 °C 5.4 °C 1019.5 hPa Calm     85% 0 mm WeatherDisplay:10.37 W/m2 SCT
23:58 7.7 °C 5.3 °C 1019.5 hPa Calm     85% 0 mm WeatherDisplay:10.37 W/m2 SCT
Piedmont Bend
Compliments of Weather Underground - 4 mb